Theta_e
309 309 308 308 308 307 307 307 307 307 307 307 307 306 306 306 306 307 307 308 308 308 308 307 306 312 326 327 326 321 322 331 330 319 320 330 330 332 333 334 328 321 317
308 308 308 308 308 308 308 307 306 306 306 305 305 305 305 306 306 306 306 306 307 307 307 307 307 307 306 317 327 326 322 320 324 333 323 317 325 331 332 333 333 328 319
308 308 308 308 308 308 307 307 307 306 306 305 304 303 303 303 303 304 305 306 306 306 306 306 306 306 306 305 306 320 326 322 321 324 328 328 316 318 332 332 333 331 327
308 308 308 308 307 307 307 307 306 306 305 304 303 303 302 302 303 303 304 304 305 305 306 306 306 307 306 306 305 305 309 325 323 320 325 327 329 319 316 330 333 333 331
307 307 307 307 307 307 307 306 306 305 305 304 303 302 302 302 303 304 305 306 306 307 307 308 307 307 306 306 306 305 305 305 318 325 320 325 326 329 323 315 323 333 333
307 307 307 307 307 306 306 305 305 305 304 303 303 302 303 303 303 304 305 306 306 307 308 308 308 308 308 305 306 309 309 306 306 308 323 320 324 327 328 326 315 318 332
307 307 306 306 306 306 305 305 304 304 304 303 302 302 302 302 303 303 304 305 306 307 308 308 304 304 305 307 309 310 313 313 312 309 307 321 320 326 326 326 327 315 319
307 306 306 306 305 305 305 304 304 303 303 302 301 301 301 301 304 302 303 305 304 307 306 303 303 305 305 306 306 306 307 306 308 310 309 306 318 321 326 327 326 327 317
310 309 308 306 306 305 305 304 304 303 302 302 301 301 301 301 300 301 300 300 300 300 299 299 301 303 304 304 304 305 305 305 305 307 311 312 306 312 323 327 327 327 327
310 309 307 306 305 305 304 304 303 302 302 301 300 299 299 300 300 300 299 298 298 298 298 299 300 300 300 301 301 303 303 304 304 304 304 311 312 310 309 321 326 333 327
309 308 306 305 305 305 304 303 303 302 301 300 299 298 298 298 298 299 299 297 297 297 298 298 298 298 301 302 302 302 302 302 303 304 304 305 308 311 311 310 322 326 331
308 306 305 305 304 304 303 303 302 301 299 298 298 298 297 297 297 297 298 298 297 297 297 298 298 298 298 298 300 301 301 301 302 302 302 302 304 306 310 306 309 322 324
306 305 305 305 304 303 302 301 300 298 298 297 297 297 296 297 297 297 297 298 298 298 298 298 298 298 298 299 299 299 299 300 301 302 303 304 305 305 307 309 304 309 319
305 304 303 303 302 301 300 299 297 297 296 296 296 296 296 296 297 297 297 298 298 298 298 298 298 299 299 300 300 300 300 301 301 302 301 302 304 304 304 308 309 305 307
303 302 302 301 300 299 298 297 296 296 295 295 295 295 296 297 297 297 298 298 298 298 298 298 298 298 298 298 298 299 300 300 301 301 303 303 303 304 305 305 307 307 303
301 301 300 299 298 297 297 296 295 295 295 295 295 296 296 297 297 298 297 297 297 297 297 297 297 297 297 297 297 297 297 299 300 300 301 302 301 301 301 303 306 306 304
301 300 300 298 297 296 295 295 295 295 295 295 295 296 296 297 297 297 297 297 297 296 296 296 296 296 297 297 297 297 297 297 298 299 300 300 301 301 300 303 304 303 302
300 297 296 296 295 294 294 294 294 295 296 296 296 296 296 296 296 296 297 297 296 296 297 296 297 297 297 297 297 297 298 298 297 297 298 299 300 300 302 302 302 304 304
296 296 295 294 294 294 294 294 295 295 296 296 296 295 295 296 296 297 297 297 297 297 297 297 297 297 297 297 297 297 298 298 298 298 297 298 299 299 301 302 303 303 305
295 295 294 294 293 294 294 295 295 295 295 295 295 295 296 296 297 297 297 297 297 297 297 297 297 297 297 298 298 297 298 299 299 299 298 296 298 299 300 301 302 303 303
294 294 293 293 293 294 294 295 295 295 295 296 296 297 297 296 297 298 300 300 300 300 300 299 299 298 298 298 298 300 299 299 300 300 299 297 296 298 299 299 301 302 304
293 293 293 293 293 294 293 294 296 296 296 296 297 297 298 298 297 297 298 299 299 300 299 300 300 299 298 299 300 299 299 299 299 299 300 297 297 297 298 300 300 301 301
293 292 293 293 293 292 293 295 296 296 296 297 296 296 296 296 298 297 296 297 297 297 297 298 299 300 299 299 300 299 299 300 299 299 299 298 299 299 299 300 301 301 301
292 293 293 293 292 292 293 294 295 296 295 296 296 296 296 296 295 296 296 297 297 297 297 298 300 300 300 300 300 301 300 299 299 299 299 298 298 299 300 299 300 302 302
292 293 293 292 292 293 293 294 295 296 295 296 296 296 295 295 294 295 296 297 297 296 298 299 299 300 301 302 301 299 300 299 299 299 299 298 298 298 298 299 299 300 301
293 292 292 293 292 293 293 294 295 296 295 295 294 294 293 294 295 295 296 296 296 297 298 299 299 300 301 303 301 300 300 299 299 298 298 298 298 299 299 298 299 299 300
Wind_Speed
5 6 7 9 10 12 13 14 15 15 15 14 13 12 11 10 8 8 10 11 13 13 13 12 9 11 13 13 12 12 12 11 11 11 13 13 13 12 11 9 6 5 6
5 5 7 8 9 11 13 15 17 18 19 18 17 16 14 12 11 11 11 11 11 13 14 14 14 10 11 15 16 16 15 14 13 13 12 14 15 14 14 12 11 8 8
4 4 5 6 9 11 14 16 18 20 21 22 22 21 18 15 15 15 13 11 10 11 13 15 15 15 14 13 16 19 18 17 17 15 15 14 15 16 16 15 15 12 11
2 1 4 7 10 12 15 17 21 23 25 26 27 25 21 18 15 13 12 12 12 10 10 12 13 15 15 16 15 16 19 20 19 19 18 18 17 16 17 18 18 17 15
2 4 6 9 10 12 15 18 20 24 27 28 29 27 22 20 17 11 7 5 3 5 10 12 14 15 15 14 14 13 14 19 22 21 22 20 20 20 18 19 21 20 20
5 7 9 11 12 14 15 18 22 24 26 28 29 27 25 21 9 9 8 6 6 6 8 10 11 14 16 16 14 13 12 15 16 21 23 24 23 23 22 21 20 23 23
11 12 12 13 14 16 17 19 21 24 27 28 30 31 28 22 14 7 8 8 9 12 13 14 15 17 15 12 12 12 11 12 14 16 20 25 27 23 25 24 23 22 25
16 17 16 17 17 17 18 20 22 25 27 26 26 27 18 29 3 10 13 13 18 19 20 22 21 17 16 16 15 16 19 21 18 16 18 20 26 29 23 26 26 25 24
17 17 18 20 19 19 21 22 23 25 27 26 23 19 10 8 33 23 29 27 24 25 24 21 21 22 22 23 23 24 23 23 24 23 18 17 21 26 28 25 27 28 27
19 19 22 21 21 22 24 24 26 27 28 28 26 23 21 24 27 26 34 34 34 28 23 21 19 19 22 24 23 20 19 20 24 27 29 19 18 20 26 30 29 28 30
17 21 18 20 19 24 27 27 29 30 28 28 27 28 28 28 27 30 35 41 37 34 30 28 26 26 23 21 21 25 26 26 25 26 27 28 25 20 22 28 32 34 27
18 18 18 20 23 27 28 31 32 30 29 29 29 29 30 30 31 31 34 34 40 41 38 35 33 31 30 30 32 29 27 28 28 28 31 31 33 32 25 28 31 36 34
21 21 23 26 29 29 30 31 31 30 29 31 31 31 31 31 30 30 32 36 36 37 41 39 35 32 29 27 29 27 28 29 33 32 24 24 26 30 29 28 32 36 41
24 26 27 27 29 29 31 31 30 30 30 30 31 31 32 31 29 30 32 33 38 35 32 34 34 28 23 22 24 24 25 26 27 25 26 26 26 27 34 29 28 34 40
25 25 27 29 30 32 32 31 32 32 32 32 33 32 31 32 29 29 28 29 31 32 33 28 28 32 37 35 34 34 32 26 23 21 17 24 23 22 25 29 30 32 35
22 24 25 27 31 32 33 33 33 33 33 33 32 31 31 30 30 29 29 27 28 33 40 39 34 35 39 33 27 25 32 40 34 27 24 22 27 30 30 30 29 32 34
24 27 31 32 33 33 32 32 32 32 32 33 32 31 32 30 29 30 31 33 35 33 37 50 37 36 32 31 29 26 23 22 34 37 29 27 24 28 28 31 30 30 32
30 30 31 32 32 32 31 32 33 32 30 29 28 27 28 30 35 34 32 33 35 35 38 45 40 38 36 31 29 28 27 25 25 27 38 31 30 24 24 28 31 29 32
29 30 30 30 31 31 31 30 31 31 31 33 36 36 37 35 33 32 32 35 38 38 38 40 43 40 39 36 35 33 31 27 25 26 28 39 34 30 28 23 29 31 30
31 32 30 30 31 29 29 29 29 35 39 31 30 29 32 34 36 36 36 38 40 42 41 40 40 42 40 38 36 36 33 29 29 24 25 26 34 37 33 27 24 29 35
31 29 31 29 30 31 31 32 33 36 34 33 34 33 33 30 32 34 37 38 34 35 35 40 43 43 44 42 40 39 37 36 34 31 27 26 26 37 33 35 27 28 26
29 30 30 31 31 34 38 29 26 30 31 35 33 32 31 31 30 30 29 29 29 30 31 32 40 39 43 38 35 38 39 37 36 30 27 24 18 23 27 21 31 32 31
29 30 28 28 34 35 29 26 27 28 32 31 31 29 28 30 29 28 30 31 31 34 33 34 39 38 38 41 39 35 38 37 38 34 22 18 14 20 23 21 21 26 28
30 28 28 33 35 29 27 26 27 30 30 28 29 29 28 24 27 27 29 31 34 37 40 31 31 35 36 42 40 33 34 29 31 32 25 30 22 22 22 26 27 25 25
29 28 34 34 29 31 28 26 26 29 28 25 26 20 26 25 30 28 29 32 34 40 32 27 30 33 38 42 39 37 34 31 30 33 30 29 29 25 27 28 29 31 31
30 35 30 26 27 28 24 24 25 28 27 25 26 28 30 27 27 27 29 31 34 40 26 26 26 25 21 35 30 31 31 31 30 25 27 25 28 25 25 27 27 30 31
Wind_Direction
124 102 80 67 58 51 43 34 26 20 13 8 1 352 342 328 312 293 282 282 293 300 304 307 297 262 256 254 253 254 250 253 250 247 240 234 231 232 231 233 235 226 209
128 97 80 62 49 41 29 21 15 10 4 356 351 344 333 321 312 307 300 292 290 296 301 302 301 298 271 252 249 250 251 250 248 251 249 244 238 236 236 231 231 231 223
133 97 60 41 29 21 13 9 5 0 355 351 346 342 332 319 311 304 298 289 288 294 297 299 298 296 292 274 255 248 249 248 246 246 251 248 245 238 235 233 229 229 228
169 40 12 11 9 2 0 358 355 352 349 346 343 341 335 329 327 313 296 288 291 297 312 302 297 301 299 292 275 262 249 245 246 243 243 247 247 245 239 234 232 229 228
297 337 337 339 342 342 345 346 348 346 346 342 339 337 333 331 326 322 317 301 280 313 311 308 309 310 313 304 295 280 263 252 246 244 242 243 245 245 242 239 234 233 229
279 299 305 313 321 327 333 336 339 341 341 337 334 332 330 332 351 309 289 288 288 281 261 278 300 313 313 310 303 298 279 269 261 249 243 241 241 243 242 239 238 233 231
287 287 292 301 308 314 320 328 331 332 334 335 331 329 332 328 326 301 277 285 264 252 257 267 289 286 289 290 296 297 286 285 291 270 254 244 238 242 241 242 239 237 231
284 283 287 296 300 304 312 319 324 325 327 329 325 326 327 330 212 296 286 267 279 265 270 277 278 271 271 269 264 267 272 275 278 280 275 257 245 237 241 239 240 237 235
274 277 289 293 294 298 308 313 319 319 317 317 313 307 313 288 311 316 304 307 301 297 293 289 270 267 268 271 272 271 270 272 271 274 277 268 256 246 237 238 239 239 235
281 285 292 291 293 298 304 307 312 312 308 306 305 302 290 285 292 301 301 301 302 302 301 298 291 280 274 272 274 277 272 270 272 269 268 266 269 260 246 238 233 233 237
276 284 281 275 276 287 297 301 303 302 301 299 297 296 295 292 288 283 290 299 297 298 298 295 292 277 269 274 272 268 267 269 267 267 264 264 262 265 257 242 235 232 228
263 260 253 264 278 288 291 293 297 297 296 295 295 295 294 294 294 292 291 292 296 297 298 295 293 287 284 277 268 267 267 267 271 271 265 266 263 262 265 251 240 232 237
260 259 265 274 283 289 292 295 296 295 294 292 292 291 290 288 289 288 288 289 289 292 295 295 294 292 289 280 277 270 269 266 267 266 269 268 261 260 261 263 250 236 235
276 280 284 291 294 296 296 295 295 295 295 293 292 291 290 288 285 283 282 287 290 289 288 289 293 290 282 276 273 273 268 264 259 260 267 263 261 261 258 261 260 247 236
292 295 296 296 298 301 301 300 298 298 297 296 293 291 288 288 285 282 279 279 279 287 287 286 282 284 286 285 278 265 261 256 254 252 256 261 258 256 254 257 258 256 244
292 293 295 293 294 296 295 295 294 294 293 292 292 289 287 286 284 281 275 271 270 277 285 283 282 283 287 289 284 278 268 260 257 254 247 250 259 261 262 253 252 251 246
290 291 293 294 294 295 295 295 294 293 291 290 289 286 284 284 279 277 274 274 275 275 273 284 280 283 284 284 280 281 280 277 261 252 251 247 256 265 267 248 248 248 249
298 301 301 301 300 300 299 297 296 295 290 289 292 286 281 283 281 279 275 272 276 277 275 278 283 284 284 285 280 277 279 274 275 269 254 249 248 250 260 252 246 246 246
307 306 306 306 306 305 303 301 297 293 287 286 283 281 284 285 283 281 276 274 275 278 275 275 279 280 281 286 284 279 279 274 268 267 268 254 244 245 245 257 242 244 246
312 311 310 307 307 307 301 297 290 294 300 298 295 286 283 282 282 285 281 276 274 269 265 263 262 267 268 276 276 278 278 281 278 276 273 274 249 247 245 248 248 247 245
310 310 309 311 306 303 298 297 299 299 294 296 295 292 291 286 280 278 278 278 281 283 277 269 267 263 258 265 260 275 273 281 280 276 281 272 254 242 243 245 240 247 246
314 315 316 310 307 301 301 303 298 296 296 294 297 294 287 286 287 288 286 283 286 284 291 280 268 260 253 263 272 270 268 271 272 275 275 263 249 240 235 240 242 243 250
321 320 314 310 308 316 313 307 302 298 295 299 298 297 296 289 290 283 293 288 285 285 285 278 274 271 263 265 270 266 260 265 264 267 267 249 234 240 238 239 244 238 243
320 314 309 309 317 313 313 308 305 303 304 302 296 297 293 294 299 294 297 294 291 292 289 281 278 281 272 264 263 258 260 262 266 262 256 250 243 239 237 238 236 238 236
311 307 310 315 314 313 315 310 308 306 301 305 311 305 314 309 305 295 291 289 289 293 289 284 283 280 272 260 260 245 240 235 242 250 250 242 245 256 245 249 242 237 238
309 310 314 314 315 314 320 317 313 308 319 315 313 318 316 305 300 294 294 291 288 293 290 295 291 298 278 233 235 235 235 225 222 236 241 232 239 246 256 249 246 236 238